Time,TemperatureF,DewpointF,PressureIn,WindDirection,WindDirectionDegrees,WindSpeedMPH,WindSpeedGustMPH,Humidity,HourlyPrecipIn,Conditions,Clouds,dailyrainin,SoftwareType,DateUTC
2013-02-07 00:00:00,47.8,42.3,29.98,NNE,22,3.6,3.6,81,0.00,,,0.00,VWS V13.01,2013-02-07 06:00:00,
2013-02-07 00:05:00,48.0,42.1,29.98,NNE,23,5.4,5.4,80,0.00,,,0.00,VWS V13.01,2013-02-07 06:05:00,
2013-02-07 00:10:00,48.0,42.5,29.98,NE,55,4.0,4.0,81,0.00,,,0.00,VWS V13.01,2013-02-07 06:10:00,
2013-02-07 00:15:00,47.8,42.3,29.98,NE,41,4.0,5.8,81,0.00,,,0.00,VWS V13.01,2013-02-07 06:15:00,
2013-02-07 00:20:00,47.8,42.6,29.98,NE,56,4.9,5.8,82,0.00,,,0.00,VWS V13.01,2013-02-07 06:20:00,
2013-02-07 00:25:00,47.8,42.3,29.98,NE,35,3.6,4.9,81,0.00,,,0.00,VWS V13.01,2013-02-07 06:25:00,
2013-02-07 00:30:00,48.0,42.1,29.98,ENE,62,3.6,4.0,80,0.00,,,0.00,VWS V13.01,2013-02-07 06:30:00,
2013-02-07 00:35:00,48.2,42.0,29.98,NE,53,2.2,2.2,79,0.00,,,0.00,VWS V13.01,2013-02-07 06:35:00,
2013-02-07 00:40:00,48.2,42.0,29.98,NE,53,0.0,0.0,79,0.00,,,0.00,VWS V13.01,2013-02-07 06:40:00,
2013-02-07 00:45:00,48.4,42.2,29.98,NE,53,0.0,2.7,79,0.00,,,0.00,VWS V13.01,2013-02-07 06:45:00,
2013-02-07 00:50:00,48.4,41.8,29.98,NNE,31,4.0,4.0,78,0.00,,,0.00,VWS V13.01,2013-02-07 06:50:00,
2013-02-07 00:55:00,48.5,42.0,29.98,NE,38,4.0,4.0,78,0.00,,,0.00,VWS V13.01,2013-02-07 06:55:00,
2013-02-07 01:00:00,48.5,42.0,29.98,NE,36,2.7,2.7,78,0.00,,,0.00,VWS V13.01,2013-02-07 07:00:00,
2013-02-07 01:05:00,48.5,42.3,29.98,NE,38,0.0,2.2,79,0.00,,,0.00,VWS V13.01,2013-02-07 07:05:00,
2013-02-07 01:10:00,48.5,42.0,29.98,NNE,21,0.0,0.0,78,0.00,,,0.00,VWS V13.01,2013-02-07 07:10:00,
2013-02-07 01:15:00,48.5,42.0,29.98,NNE,30,0.0,0.0,78,0.00,,,0.00,VWS V13.01,2013-02-07 07:15:00,
2013-02-07 01:20:00,48.5,42.7,29.98,NE,36,3.6,3.6,80,0.00,,,0.00,VWS V13.01,2013-02-07 07:20:00,
2013-02-07 01:25:00,48.5,42.3,29.98,NNE,30,4.0,4.0,79,0.00,,,0.00,VWS V13.01,2013-02-07 07:25:00,
2013-02-07 01:30:00,48.5,42.3,29.95,NNE,30,3.1,3.1,79,0.00,,,0.00,VWS V13.01,2013-02-07 07:30:00,
2013-02-07 01:35:00,48.5,42.3,29.95,NNE,31,3.1,3.1,79,0.00,,,0.00,VWS V13.01,2013-02-07 07:35:00,
2013-02-07 01:40:00,48.5,42.3,29.95,NNE,25,0.0,0.0,79,0.00,,,0.00,VWS V13.01,2013-02-07 07:40:00,
2013-02-07 01:45:00,48.5,42.3,29.95,NNE,24,0.0,0.0,79,0.00,,,0.00,VWS V13.01,2013-02-07 07:45:00,
2013-02-07 01:50:00,48.7,42.8,29.95,NNE,25,0.0,0.0,80,0.00,,,0.00,VWS V13.01,2013-02-07 07:50:00,
2013-02-07 01:55:00,48.5,42.3,29.95,NNE,25,0.0,0.0,79,0.00,,,0.00,VWS V13.01,2013-02-07 07:55:00,
2013-02-07 02:00:00,48.5,42.3,29.95,NNE,25,0.0,0.0,79,0.00,,,0.00,VWS V13.01,2013-02-07 08:00:00,
2013-02-07 02:05:00,48.7,42.2,29.95,NNE,31,2.7,2.7,78,0.00,,,0.00,VWS V13.01,2013-02-07 08:05:00,
2013-02-07 02:10:00,48.7,42.2,29.95,North,3,0.0,2.7,78,0.00,,,0.00,VWS V13.01,2013-02-07 08:10:00,
2013-02-07 02:15:00,48.7,42.2,29.95,NNE,24,0.0,0.0,78,0.00,,,0.00,VWS V13.01,2013-02-07 08:15:00,
2013-02-07 02:20:00,48.7,42.2,29.95,NNE,24,0.0,0.0,78,0.00,,,0.00,VWS V13.01,2013-02-07 08:20:00,
2013-02-07 02:25:00,48.7,42.2,29.95,NNE,24,0.0,0.0,78,0.00,,,0.00,VWS V13.01,2013-02-07 08:25:00,
2013-02-07 02:30:00,48.7,42.2,29.95,NNW,342,0.0,0.0,78,0.00,,,0.00,VWS V13.01,2013-02-07 08:30:00,
2013-02-07 02:35:00,48.7,42.2,29.95,NNW,342,0.0,0.0,78,0.00,,,0.00,VWS V13.01,2013-02-07 08:35:00,
2013-02-07 02:40:00,48.7,42.2,29.95,NNW,342,0.0,0.0,78,0.00,,,0.00,VWS V13.01,2013-02-07 08:40:00,
2013-02-07 02:45:00,48.5,42.0,29.95,NNW,342,0.0,0.0,78,0.00,,,0.00,VWS V13.01,2013-02-07 08:45:00,
2013-02-07 02:50:00,48.5,42.0,29.95,NNW,342,0.0,0.0,78,0.00,,,0.00,VWS V13.01,2013-02-07 08:50:00,
2013-02-07 02:55:00,48.5,42.3,29.95,NNW,342,0.0,0.0,79,0.00,,,0.00,VWS V13.01,2013-02-07 08:55:00,
2013-02-07 03:00:00,48.5,42.3,29.95,NNW,342,0.0,0.0,79,0.00,,,0.00,VWS V13.01,2013-02-07 09:00:00,
2013-02-07 03:05:00,48.5,42.7,29.95,NNW,342,0.0,0.0,80,0.00,,,0.00,VWS V13.01,2013-02-07 09:05:00,
2013-02-07 03:10:00,48.5,42.3,29.95,NNE,24,3.1,3.1,79,0.00,,,0.00,VWS V13.01,2013-02-07 09:10:00,
2013-02-07 03:15:00,48.5,43.0,29.92,NE,37,0.0,2.2,81,0.00,,,0.00,VWS V13.01,2013-02-07 09:15:00,
2013-02-07 03:20:00,48.5,42.7,29.92,NE,37,0.0,0.0,80,0.00,,,0.00,VWS V13.01,2013-02-07 09:20:00,
2013-02-07 03:25:00,48.5,42.7,29.92,NE,37,0.0,0.0,80,0.00,,,0.00,VWS V13.01,2013-02-07 09:25:00,
2013-02-07 03:30:00,48.4,42.5,29.92,NE,37,0.0,0.0,80,0.00,,,0.00,VWS V13.01,2013-02-07 09:30:00,
2013-02-07 03:35:00,48.4,42.5,29.92,NE,37,0.0,0.0,80,0.00,,,0.00,VWS V13.01,2013-02-07 09:35:00,
2013-02-07 03:40:00,48.5,42.7,29.92,NE,37,0.0,0.0,80,0.00,,,0.00,VWS V13.01,2013-02-07 09:40:00,
2013-02-07 03:45:00,48.4,43.1,29.92,NE,40,4.9,4.9,82,0.00,,,0.00,VWS V13.01,2013-02-07 09:45:00,
2013-02-07 03:50:00,48.4,43.1,29.92,ENE,66,0.0,0.0,82,0.00,,,0.00,VWS V13.01,2013-02-07 09:50:00,
2013-02-07 03:55:00,48.5,42.0,29.92,NE,41,0.0,0.0,78,0.00,,,0.00,VWS V13.01,2013-02-07 09:55:00,
2013-02-07 04:00:00,48.7,42.2,29.92,NNE,15,0.0,0.0,78,0.00,,,0.00,VWS V13.01,2013-02-07 10:00:00,
2013-02-07 04:05:00,48.7,41.8,29.92,East,82,3.1,3.1,77,0.00,,,0.00,VWS V13.01,2013-02-07 10:05:00,
2013-02-07 04:10:00,49.1,41.5,29.92,ENE,62,0.0,0.0,75,0.00,,,0.00,VWS V13.01,2013-02-07 10:10:00,
2013-02-07 04:15:00,49.3,41.0,29.92,ENE,64,2.7,2.7,73,0.00,,,0.00,VWS V13.01,2013-02-07 10:15:00,
2013-02-07 04:20:00,49.4,41.2,29.92,ENE,73,2.2,2.7,73,0.00,,,0.00,VWS V13.01,2013-02-07 10:20:00,
2013-02-07 04:25:00,49.6,41.0,29.92,ENE,69,0.0,0.0,72,0.00,,,0.00,VWS V13.01,2013-02-07 10:25:00,
2013-02-07 04:30:00,49.6,41.0,29.92,ENE,64,0.0,0.0,72,0.00,,,0.00,VWS V13.01,2013-02-07 10:30:00,
2013-02-07 04:35:00,49.6,40.6,29.92,ENE,64,0.0,0.0,71,0.00,,,0.00,VWS V13.01,2013-02-07 10:35:00,
2013-02-07 04:40:00,49.6,40.2,29.92,NE,55,0.0,0.0,70,0.00,,,0.00,VWS V13.01,2013-02-07 10:40:00,
2013-02-07 04:45:00,49.8,40.0,29.92,ENE,72,2.7,3.6,69,0.00,,,0.00,VWS V13.01,2013-02-07 10:45:00,
2013-02-07 04:50:00,49.8,40.0,29.92,ENE,74,2.2,2.2,69,0.00,,,0.00,VWS V13.01,2013-02-07 10:50:00,
2013-02-07 04:55:00,49.8,40.0,29.92,ENE,74,0.0,0.0,69,0.00,,,0.00,VWS V13.01,2013-02-07 10:55:00,
2013-02-07 05:00:00,49.8,40.0,29.92,ENE,74,0.0,0.0,69,0.00,,,0.00,VWS V13.01,2013-02-07 11:00:00,
2013-02-07 05:05:00,49.8,40.0,29.92,ENE,73,0.0,0.0,69,0.00,,,0.00,VWS V13.01,2013-02-07 11:05:00,
2013-02-07 05:10:00,49.8,40.0,29.92,ENE,73,0.0,0.0,69,0.00,,,0.00,VWS V13.01,2013-02-07 11:10:00,
2013-02-07 05:15:00,49.8,40.0,29.92,ENE,63,0.0,0.0,69,0.00,,,0.00,VWS V13.01,2013-02-07 11:15:00,
2013-02-07 05:20:00,49.8,40.0,29.92,East,85,0.0,0.0,69,0.00,,,0.00,VWS V13.01,2013-02-07 11:20:00,
2013-02-07 05:25:00,49.8,40.0,29.92,ENE,73,0.0,0.0,69,0.00,,,0.00,VWS V13.01,2013-02-07 11:25:00,
2013-02-07 05:30:00,49.8,40.0,29.92,NNE,20,0.0,2.2,69,0.00,,,0.00,VWS V13.01,2013-02-07 11:30:00,
2013-02-07 05:35:00,49.6,39.9,29.92,East,88,6.3,6.3,69,0.00,,,0.00,VWS V13.01,2013-02-07 11:35:00,
2013-02-07 05:40:00,49.8,40.0,29.92,East,81,4.0,4.0,69,0.00,,,0.00,VWS V13.01,2013-02-07 11:40:00,
2013-02-07 05:45:00,49.8,40.0,29.92,East,89,3.1,4.0,69,0.00,,,0.00,VWS V13.01,2013-02-07 11:45:00,
2013-02-07 05:50:00,49.6,39.9,29.92,ENE,67,2.7,2.7,69,0.00,,,0.00,VWS V13.01,2013-02-07 11:50:00,
2013-02-07 05:55:00,49.6,40.2,29.92,ENE,64,2.7,2.7,70,0.00,,,0.00,VWS V13.01,2013-02-07 11:55:00,
2013-02-07 06:00:00,49.6,40.2,29.92,ENE,71,3.1,3.1,70,0.00,,,0.00,VWS V13.01,2013-02-07 12:00:00,
2013-02-07 06:05:00,49.6,40.2,29.92,NE,55,2.7,3.1,70,0.00,,,0.00,VWS V13.01,2013-02-07 12:05:00,
2013-02-07 06:10:00,49.4,40.1,29.92,ENE,76,0.0,0.0,70,0.00,,,0.00,VWS V13.01,2013-02-07 12:10:00,
2013-02-07 06:15:00,49.4,40.1,29.92,NE,43,0.0,0.0,70,0.00,,,0.00,VWS V13.01,2013-02-07 12:15:00,
2013-02-07 06:20:00,49.4,40.1,29.92,NE,43,0.0,0.0,70,0.00,,,0.00,VWS V13.01,2013-02-07 12:20:00,
2013-02-07 06:25:00,49.4,40.1,29.92,East,95,2.2,2.7,70,0.00,,,0.00,VWS V13.01,2013-02-07 12:25:00,
2013-02-07 06:30:00,49.4,40.1,29.89,ENE,70,2.7,2.7,70,0.00,,,0.00,VWS V13.01,2013-02-07 12:30:00,
2013-02-07 06:35:00,49.4,40.1,29.89,ENE,71,0.0,0.0,70,0.00,,,0.00,VWS V13.01,2013-02-07 12:35:00,
2013-02-07 06:40:00,49.4,40.1,29.89,NE,44,2.2,2.7,70,0.00,,,0.00,VWS V13.01,2013-02-07 12:40:00,
2013-02-07 06:45:00,49.3,40.3,29.89,ENE,66,2.2,2.7,71,0.00,,,0.00,VWS V13.01,2013-02-07 12:45:00,
2013-02-07 06:50:00,49.3,40.3,29.89,NE,41,2.7,4.0,71,0.00,,,0.00,VWS V13.01,2013-02-07 12:50:00,
2013-02-07 06:55:00,49.3,39.9,29.89,ENE,59,2.7,4.0,70,0.00,,,0.00,VWS V13.01,2013-02-07 12:55:00,
2013-02-07 07:00:00,49.3,39.9,29.89,East,84,4.9,4.9,70,0.00,,,0.00,VWS V13.01,2013-02-07 13:00:00,
2013-02-07 07:05:00,49.3,39.9,29.89,NE,44,4.0,4.0,70,0.00,,,0.00,VWS V13.01,2013-02-07 13:05:00,
2013-02-07 07:10:00,49.3,39.9,29.89,ENE,62,2.7,2.7,70,0.00,,,0.00,VWS V13.01,2013-02-07 13:10:00,
2013-02-07 07:15:00,49.3,40.3,29.89,ENE,62,0.0,0.0,71,0.00,,,0.00,VWS V13.01,2013-02-07 13:15:00,
2013-02-07 07:20:00,49.3,40.3,29.89,East,82,0.0,0.0,71,0.00,,,0.00,VWS V13.01,2013-02-07 13:20:00,
2013-02-07 07:25:00,49.3,39.9,29.89,ENE,70,2.7,3.6,70,0.00,,,0.00,VWS V13.01,2013-02-07 13:25:00,
2013-02-07 07:30:00,49.3,40.3,29.92,ENE,70,0.0,0.0,71,0.00,,,0.00,VWS V13.01,2013-02-07 13:30:00,
2013-02-07 07:34:00,49.3,40.3,29.92,ENE,70,0.0,0.0,71,0.00,,,0.00,VWS V13.01,2013-02-07 13:34:00,
2013-02-07 07:40:00,49.3,40.3,29.92,NE,48,2.7,2.7,71,0.00,,,0.00,VWS V13.01,2013-02-07 13:40:00,
2013-02-07 07:44:00,49.3,40.6,29.92,NE,54,2.2,2.7,72,0.00,,,0.00,VWS V13.01,2013-02-07 13:44:00,
2013-02-07 07:49:00,49.3,41.0,29.92,NE,45,3.1,3.1,73,0.00,,,0.00,VWS V13.01,2013-02-07 13:49:00,
2013-02-07 07:54:00,49.4,40.4,29.92,NE,51,3.1,3.6,71,0.00,,,0.00,VWS V13.01,2013-02-07 13:54:00,
2013-02-07 07:59:00,49.4,40.8,29.92,NE,45,0.0,0.0,72,0.00,,,0.00,VWS V13.01,2013-02-07 13:59:00,
2013-02-07 08:04:00,49.6,41.0,29.92,NNE,31,3.6,4.0,72,0.00,,,0.00,VWS V13.01,2013-02-07 14:04:00,
2013-02-07 08:09:00,49.8,40.8,29.92,NNE,29,3.6,3.6,71,0.00,,,0.00,VWS V13.01,2013-02-07 14:09:00,
2013-02-07 08:14:00,49.8,40.4,29.89,NE,39,3.6,4.0,70,0.00,,,0.00,VWS V13.01,2013-02-07 14:14:00,
2013-02-07 08:19:00,50.0,40.6,29.89,NE,38,3.6,3.6,70,0.00,,,0.00,VWS V13.01,2013-02-07 14:19:00,
2013-02-07 08:24:00,50.2,40.8,29.89,ENE,58,2.2,2.2,70,0.00,,,0.00,VWS V13.01,2013-02-07 14:24:00,
2013-02-07 08:29:00,50.5,40.7,29.89,NE,41,4.0,4.0,69,0.00,,,0.00,VWS V13.01,2013-02-07 14:29:00,
2013-02-07 08:34:00,50.5,41.1,29.89,NNE,29,4.5,4.5,70,0.00,,,0.00,VWS V13.01,2013-02-07 14:34:00,
2013-02-07 08:39:00,50.5,41.1,29.89,NE,40,3.6,4.9,70,0.00,,,0.00,VWS V13.01,2013-02-07 14:39:00,
2013-02-07 08:44:00,50.7,41.3,29.89,NE,49,4.0,4.0,70,0.00,,,0.00,VWS V13.01,2013-02-07 14:44:00,
2013-02-07 08:49:00,50.7,41.3,29.89,NE,48,2.7,4.0,70,0.00,,,0.00,VWS V13.01,2013-02-07 14:49:00,
2013-02-07 08:54:00,50.9,41.5,29.89,ENE,59,2.7,2.7,70,0.00,,,0.00,VWS V13.01,2013-02-07 14:54:00,
2013-02-07 08:59:00,51.1,41.6,29.89,ENE,66,3.6,3.6,70,0.00,,,0.00,VWS V13.01,2013-02-07 14:59:00,
2013-02-07 09:04:00,51.1,41.6,29.89,ENE,77,5.4,5.4,70,0.00,,,0.00,VWS V13.01,2013-02-07 15:04:00,
2013-02-07 09:09:00,51.2,41.8,29.89,ENE,61,4.9,5.4,70,0.00,,,0.00,VWS V13.01,2013-02-07 15:09:00,
2013-02-07 09:14:00,51.4,42.3,29.89,NE,48,5.4,5.4,71,0.00,,,0.00,VWS V13.01,2013-02-07 15:14:00,
2013-02-07 09:19:00,51.6,42.2,29.89,ENE,71,3.6,3.6,70,0.00,,,0.00,VWS V13.01,2013-02-07 15:19:00,
2013-02-07 09:24:00,51.8,42.0,29.89,NE,51,3.1,3.6,69,0.00,,,0.00,VWS V13.01,2013-02-07 15:24:00,
2013-02-07 09:29:00,52.1,42.7,29.89,ENE,65,2.7,5.4,70,0.00,,,0.00,VWS V13.01,2013-02-07 15:29:00,
2013-02-07 09:34:00,52.3,43.2,29.89,NNE,28,5.8,5.8,71,0.00,,,0.00,VWS V13.01,2013-02-07 15:34:00,
2013-02-07 09:39:00,52.5,43.0,29.89,NNE,32,4.0,4.0,70,0.00,,,0.00,VWS V13.01,2013-02-07 15:39:00,
2013-02-07 09:44:00,52.7,43.2,29.89,ENE,58,4.0,4.9,70,0.00,,,0.00,VWS V13.01,2013-02-07 15:44:00,
2013-02-07 09:49:00,52.9,43.4,29.89,East,86,2.7,4.0,70,0.00,,,0.00,VWS V13.01,2013-02-07 15:49:00,
2013-02-07 09:54:00,53.0,43.5,29.89,NNE,30,2.2,2.2,70,0.00,,,0.00,VWS V13.01,2013-02-07 15:54:00,
2013-02-07 09:59:00,53.4,43.9,29.92,NE,55,2.7,2.7,70,0.00,,,0.00,VWS V13.01,2013-02-07 15:59:00,
2013-02-07 10:04:00,53.6,44.0,29.92,East,94,0.0,0.0,70,0.00,,,0.00,VWS V13.01,2013-02-07 16:04:00,
2013-02-07 10:09:00,53.8,44.6,29.92,NNE,21,3.6,5.8,71,0.00,,,0.00,VWS V13.01,2013-02-07 16:09:00,
2013-02-07 10:14:00,53.9,44.8,29.92,East,88,4.0,4.9,71,0.00,,,0.00,VWS V13.01,2013-02-07 16:14:00,
2013-02-07 10:19:00,54.1,45.3,29.92,SE,135,3.6,5.4,72,0.00,,,0.00,VWS V13.01,2013-02-07 16:19:00,
2013-02-07 10:24:00,53.9,45.5,29.92,ESE,111,3.6,5.4,73,0.00,,,0.00,VWS V13.01,2013-02-07 16:24:00,
2013-02-07 10:29:00,53.9,45.5,29.92,ESE,114,5.4,5.4,73,0.00,,,0.00,VWS V13.01,2013-02-07 16:29:00,
2013-02-07 10:34:00,53.9,45.8,29.92,ENE,69,3.6,4.0,74,0.00,,,0.00,VWS V13.01,2013-02-07 16:34:00,
2013-02-07 10:39:00,54.1,46.0,29.92,East,84,3.6,3.6,74,0.00,,,0.00,VWS V13.01,2013-02-07 16:39:00,
2013-02-07 10:44:00,54.5,46.0,29.92,East,88,4.0,5.8,73,0.00,,,0.00,VWS V13.01,2013-02-07 16:44:00,
2013-02-07 10:49:00,55.2,46.0,29.92,ENE,73,5.4,6.7,71,0.00,,,0.00,VWS V13.01,2013-02-07 16:49:00,
2013-02-07 10:54:00,55.6,46.0,29.92,East,91,5.8,5.8,70,0.00,,,0.00,VWS V13.01,2013-02-07 16:54:00,
2013-02-07 10:59:00,55.6,46.3,29.89,East,80,5.4,5.4,71,0.00,,,0.00,VWS V13.01,2013-02-07 16:59:00,
2013-02-07 11:04:00,56.1,46.5,29.89,ENE,74,6.3,6.3,70,0.00,,,0.00,VWS V13.01,2013-02-07 17:04:00,
2013-02-07 11:09:00,56.6,46.2,29.89,ENE,60,4.0,4.0,68,0.00,,,0.00,VWS V13.01,2013-02-07 17:09:00,
2013-02-07 11:14:00,56.3,45.9,29.89,NE,56,3.6,4.9,68,0.00,,,0.00,VWS V13.01,2013-02-07 17:14:00,
2013-02-07 11:19:00,56.1,46.1,29.89,NE,36,4.9,5.4,69,0.00,,,0.00,VWS V13.01,2013-02-07 17:19:00,
2013-02-07 11:24:00,56.5,46.4,29.89,East,101,2.7,5.8,69,0.00,,,0.00,VWS V13.01,2013-02-07 17:24:00,
2013-02-07 11:29:00,56.8,46.8,29.92,ESE,112,3.6,3.6,69,0.00,,,0.00,VWS V13.01,2013-02-07 17:29:00,
2013-02-07 11:34:00,56.8,46.8,29.92,NW,310,0.0,3.1,69,0.00,,,0.00,VWS V13.01,2013-02-07 17:34:00,
2013-02-07 11:39:00,57.0,46.9,29.92,East,79,0.0,0.0,69,0.00,,,0.00,VWS V13.01,2013-02-07 17:39:00,
2013-02-07 11:44:00,57.5,47.1,29.89,SE,128,3.1,3.1,68,0.00,,,0.00,VWS V13.01,2013-02-07 17:44:00,
2013-02-07 11:49:00,58.4,47.5,29.89,ESE,107,4.0,5.4,67,0.00,,,0.00,VWS V13.01,2013-02-07 17:49:00,
2013-02-07 11:54:00,58.8,47.9,29.89,ENE,60,4.0,5.4,67,0.00,,,0.00,VWS V13.01,2013-02-07 17:54:00,
2013-02-07 11:59:00,59.7,48.3,29.89,SSE,150,2.7,3.6,66,0.00,,,0.00,VWS V13.01,2013-02-07 17:59:00,
2013-02-07 12:04:00,59.5,47.8,29.89,East,83,5.4,5.4,65,0.00,,,0.00,VWS V13.01,2013-02-07 18:04:00,
2013-02-07 12:09:00,58.4,47.9,29.89,SE,129,5.4,5.4,68,0.00,,,0.00,VWS V13.01,2013-02-07 18:09:00,
2013-02-07 12:14:00,57.7,47.6,29.89,ESE,118,2.2,3.1,69,0.00,,,0.00,VWS V13.01,2013-02-07 18:14:00,
2013-02-07 12:19:00,57.7,47.6,29.89,ESE,108,4.9,5.4,69,0.00,,,0.00,VWS V13.01,2013-02-07 18:19:00,
2013-02-07 12:24:00,57.5,47.8,29.89,SSE,151,4.0,4.0,70,0.00,,,0.00,VWS V13.01,2013-02-07 18:24:00,
2013-02-07 12:29:00,57.5,47.8,29.89,ESE,122,2.7,3.1,70,0.00,,,0.00,VWS V13.01,2013-02-07 18:29:00,
2013-02-07 12:34:00,57.7,48.0,29.89,SSE,168,2.7,4.9,70,0.00,,,0.00,VWS V13.01,2013-02-07 18:34:00,
2013-02-07 12:39:00,58.1,48.4,29.89,NNE,13,3.1,3.1,70,0.00,,,0.00,VWS V13.01,2013-02-07 18:39:00,
2013-02-07 12:44:00,58.3,48.2,29.89,South,186,2.7,6.3,69,0.00,,,0.00,VWS V13.01,2013-02-07 18:44:00,
2013-02-07 12:49:00,58.1,48.0,29.89,South,169,3.6,3.6,69,0.00,,,0.00,VWS V13.01,2013-02-07 18:49:00,
2013-02-07 12:54:00,57.7,47.6,29.89,ENE,70,2.7,3.1,69,0.00,,,0.00,VWS V13.01,2013-02-07 18:54:00,
2013-02-07 12:59:00,57.5,47.8,29.89,ENE,60,0.0,0.0,70,0.00,,,0.00,VWS V13.01,2013-02-07 18:59:00,
2013-02-07 13:04:00,57.5,48.2,29.89,ENE,60,0.0,0.0,71,0.00,,,0.00,VWS V13.01,2013-02-07 19:04:00,
2013-02-07 13:09:00,57.4,48.4,29.89,ENE,63,0.0,0.0,72,0.00,,,0.00,VWS V13.01,2013-02-07 19:09:00,
2013-02-07 13:14:00,56.6,49.2,29.89,East,84,0.0,0.0,76,0.00,,,0.00,VWS V13.01,2013-02-07 19:14:00,
2013-02-07 13:19:00,56.1,50.0,29.89,ENE,69,0.0,0.0,80,0.00,,,0.00,VWS V13.01,2013-02-07 19:19:00,
2013-02-07 13:24:00,55.7,52.9,29.89,NE,47,0.0,0.0,90,0.00,,,0.00,VWS V13.01,2013-02-07 19:24:00,
2013-02-07 13:29:00,55.4,52.5,29.86,ENE,76,0.0,0.0,90,0.00,,,0.00,VWS V13.01,2013-02-07 19:29:00,
2013-02-07 13:34:00,55.2,52.3,29.86,ENE,76,0.0,0.0,90,0.00,,,0.00,VWS V13.01,2013-02-07 19:34:00,
2013-02-07 13:39:00,55.0,52.5,29.86,ENE,76,0.0,0.0,91,0.00,,,0.00,VWS V13.01,2013-02-07 19:39:00,
2013-02-07 13:44:00,55.2,53.5,29.86,ENE,76,0.0,0.0,94,0.00,,,0.00,VWS V13.01,2013-02-07 19:44:00,
2013-02-07 13:49:00,55.2,54.1,29.86,NE,43,0.0,0.0,96,0.00,,,0.00,VWS V13.01,2013-02-07 19:49:00,
2013-02-07 13:54:00,55.4,54.3,29.86,NE,35,0.0,0.0,96,0.00,,,0.00,VWS V13.01,2013-02-07 19:54:00,
2013-02-07 13:59:00,55.6,54.2,29.86,NNE,27,2.7,3.1,95,0.00,,,0.00,VWS V13.01,2013-02-07 19:59:00,
2013-02-07 14:04:00,55.6,53.6,29.86,NNE,33,3.6,3.6,93,0.00,,,0.00,VWS V13.01,2013-02-07 20:04:00,
2013-02-07 14:09:00,55.7,53.5,29.86,NE,36,4.0,4.0,92,0.00,,,0.00,VWS V13.01,2013-02-07 20:09:00,
2013-02-07 14:14:00,55.7,53.5,29.86,NNE,25,3.6,3.6,92,0.00,,,0.00,VWS V13.01,2013-02-07 20:14:00,
2013-02-07 14:19:00,55.6,53.0,29.86,NE,52,2.7,3.6,91,0.00,,,0.00,VWS V13.01,2013-02-07 20:19:00,
2013-02-07 14:24:00,55.6,53.3,29.83,NE,44,3.1,3.1,92,0.00,,,0.00,VWS V13.01,2013-02-07 20:24:00,
2013-02-07 14:29:00,55.6,53.3,29.86,NE,41,2.7,3.1,92,0.00,,,0.00,VWS V13.01,2013-02-07 20:29:00,
2013-02-07 14:34:00,55.6,53.3,29.86,ENE,71,3.6,3.6,92,0.00,,,0.00,VWS V13.01,2013-02-07 20:34:00,
2013-02-07 14:39:00,55.6,53.0,29.86,NE,45,2.7,3.1,91,0.00,,,0.00,VWS V13.01,2013-02-07 20:39:00,
2013-02-07 14:44:00,55.6,53.3,29.86,NNE,33,0.0,0.0,92,0.00,,,0.00,VWS V13.01,2013-02-07 20:44:00,
2013-02-07 14:49:00,55.6,53.3,29.86,NNE,33,0.0,0.0,92,0.00,,,0.00,VWS V13.01,2013-02-07 20:49:00,
2013-02-07 14:54:00,55.6,53.6,29.86,NNE,23,2.2,2.7,93,0.04,,,0.04,VWS V13.01,2013-02-07 20:54:00,
2013-02-07 14:59:00,55.6,54.2,29.86,NE,47,2.2,2.2,95,0.04,,,0.04,VWS V13.01,2013-02-07 20:59:00,
2013-02-07 15:04:00,55.6,54.4,29.86,NE,52,0.0,0.0,96,0.04,,,0.04,VWS V13.01,2013-02-07 21:04:00,
2013-02-07 15:09:00,55.4,54.0,29.86,NE,52,0.0,0.0,95,0.04,,,0.04,VWS V13.01,2013-02-07 21:09:00,
2013-02-07 15:14:00,55.4,54.0,29.86,ENE,72,0.0,2.2,95,0.04,,,0.04,VWS V13.01,2013-02-07 21:14:00,
2013-02-07 15:19:00,55.4,54.0,29.86,ENE,72,0.0,0.0,95,0.04,,,0.04,VWS V13.01,2013-02-07 21:19:00,
2013-02-07 15:24:00,55.4,54.5,29.86,NE,35,2.7,2.7,97,0.04,,,0.04,VWS V13.01,2013-02-07 21:24:00,
2013-02-07 15:29:00,55.4,55.1,29.86,NE,35,0.0,0.0,99,0.04,,,0.04,VWS V13.01,2013-02-07 21:29:00,
2013-02-07 15:34:00,55.4,55.1,29.86,NE,35,0.0,0.0,99,0.04,,,0.04,VWS V13.01,2013-02-07 21:34:00,
2013-02-07 15:39:00,55.2,54.9,29.86,NE,35,2.7,2.7,99,0.04,,,0.04,VWS V13.01,2013-02-07 21:39:00,
2013-02-07 15:44:00,55.2,54.7,29.86,NE,35,0.0,0.0,98,0.04,,,0.04,VWS V13.01,2013-02-07 21:44:00,
2013-02-07 15:49:00,55.2,54.9,29.86,NE,35,0.0,0.0,99,0.04,,,0.04,VWS V13.01,2013-02-07 21:49:00,
2013-02-07 15:54:00,55.2,54.9,29.86,NE,35,0.0,0.0,99,0.00,,,0.04,VWS V13.01,2013-02-07 21:54:00,
2013-02-07 15:59:00,55.2,54.9,29.86,NE,35,0.0,0.0,99,0.00,,,0.04,VWS V13.01,2013-02-07 21:59:00,
2013-02-07 16:04:00,55.2,54.9,29.86,NE,35,0.0,0.0,99,0.00,,,0.04,VWS V13.01,2013-02-07 22:04:00,
2013-02-07 16:09:00,55.2,54.9,29.86,NNW,342,0.0,0.0,99,0.00,,,0.04,VWS V13.01,2013-02-07 22:09:00,
2013-02-07 16:14:00,55.2,54.9,29.86,NNW,342,0.0,0.0,99,0.00,,,0.04,VWS V13.01,2013-02-07 22:14:00,
2013-02-07 16:19:00,55.0,55.0,29.86,NNW,342,0.0,0.0,100,0.00,,,0.04,VWS V13.01,2013-02-07 22:19:00,
2013-02-07 16:24:00,55.0,55.0,29.86,NNW,342,0.0,0.0,100,0.00,,,0.04,VWS V13.01,2013-02-07 22:24:00,
2013-02-07 16:29:00,54.8,54.8,29.86,North,350,0.0,0.0,100,0.00,,,0.04,VWS V13.01,2013-02-07 22:29:00,
2013-02-07 16:34:00,54.8,54.8,29.86,North,350,0.0,0.0,100,0.00,,,0.04,VWS V13.01,2013-02-07 22:34:00,
2013-02-07 16:39:00,54.7,54.7,29.86,North,350,0.0,0.0,100,0.00,,,0.04,VWS V13.01,2013-02-07 22:39:00,
2013-02-07 16:44:00,54.5,54.5,29.86,NNW,340,0.0,0.0,100,0.00,,,0.04,VWS V13.01,2013-02-07 22:44:00,
2013-02-07 16:49:00,54.5,54.5,29.86,NNW,340,0.0,0.0,100,0.00,,,0.04,VWS V13.01,2013-02-07 22:49:00,
2013-02-07 16:54:00,54.5,54.5,29.86,NNW,339,0.0,0.0,100,0.00,,,0.04,VWS V13.01,2013-02-07 22:54:00,
2013-02-07 16:59:00,54.3,54.3,29.86,NNW,339,0.0,0.0,100,0.00,,,0.04,VWS V13.01,2013-02-07 22:59:00,
2013-02-07 17:04:00,54.3,54.3,29.86,NNW,337,0.0,0.0,100,0.00,,,0.04,VWS V13.01,2013-02-07 23:04:00,
2013-02-07 17:09:00,54.1,54.1,29.86,NNW,346,0.0,0.0,100,0.00,,,0.04,VWS V13.01,2013-02-07 23:09:00,
2013-02-07 17:14:00,54.1,54.1,29.86,North,359,0.0,0.0,100,0.00,,,0.04,VWS V13.01,2013-02-07 23:14:00,
2013-02-07 17:19:00,54.1,54.1,29.86,North,1,0.0,0.0,100,0.00,,,0.04,VWS V13.01,2013-02-07 23:19:00,
2013-02-07 17:24:00,53.9,53.9,29.86,North,7,2.7,2.7,100,0.00,,,0.04,VWS V13.01,2013-02-07 23:24:00,
2013-02-07 17:29:00,53.9,53.9,29.86,NNE,18,0.0,2.2,100,0.00,,,0.04,VWS V13.01,2013-02-07 23:29:00,
2013-02-07 17:34:00,53.9,53.9,29.86,NE,35,2.7,3.1,100,0.00,,,0.04,VWS V13.01,2013-02-07 23:34:00,
2013-02-07 17:39:00,53.9,53.9,29.86,NNE,28,4.0,4.9,100,0.04,,,0.08,VWS V13.01,2013-02-07 23:39:00,
2013-02-07 17:44:00,53.8,53.8,29.86,NNE,29,3.1,3.1,100,0.04,,,0.08,VWS V13.01,2013-02-07 23:44:00,
2013-02-07 17:49:00,53.8,53.8,29.86,North,1,0.0,2.2,100,0.04,,,0.08,VWS V13.01,2013-02-07 23:49:00,
2013-02-07 17:54:00,53.8,53.8,29.86,North,9,2.2,2.7,100,0.04,,,0.08,VWS V13.01,2013-02-07 23:54:00,
2013-02-07 17:59:00,53.8,53.8,29.86,North,3,0.0,0.0,100,0.04,,,0.08,VWS V13.01,2013-02-07 23:59:00,
2013-02-07 18:04:00,53.6,53.6,29.86,North,352,0.0,0.0,100,0.04,,,0.08,VWS V13.01,2013-02-08 00:04:00,
2013-02-07 18:09:00,53.6,53.6,29.86,North,3,0.0,0.0,100,0.04,,,0.08,VWS V13.01,2013-02-08 00:09:00,
2013-02-07 18:14:00,53.6,53.6,29.86,North,3,0.0,0.0,100,0.04,,,0.08,VWS V13.01,2013-02-08 00:14:00,
2013-02-07 18:19:00,53.6,53.6,29.86,North,3,0.0,0.0,100,0.04,,,0.08,VWS V13.01,2013-02-08 00:19:00,
2013-02-07 18:24:00,53.4,53.4,29.86,North,3,0.0,0.0,100,0.04,,,0.08,VWS V13.01,2013-02-08 00:24:00,
2013-02-07 18:29:00,53.4,53.4,29.86,North,3,0.0,0.0,100,0.04,,,0.08,VWS V13.01,2013-02-08 00:29:00,
2013-02-07 18:33:00,53.4,53.4,29.86,NNE,16,0.0,0.0,100,0.04,,,0.08,VWS V13.01,2013-02-08 00:33:00,
2013-02-07 18:38:00,53.4,53.4,29.86,North,1,0.0,0.0,100,0.00,,,0.08,VWS V13.01,2013-02-08 00:38:00,
2013-02-07 18:43:00,53.4,53.4,29.89,NW,325,4.0,4.9,100,0.00,,,0.08,VWS V13.01,2013-02-08 00:43:00,
2013-02-07 18:48:00,53.4,53.4,29.89,NW,319,3.1,3.6,100,0.00,,,0.08,VWS V13.01,2013-02-08 00:48:00,
2013-02-07 18:53:00,53.4,53.4,29.89,North,356,3.1,3.6,100,0.00,,,0.08,VWS V13.01,2013-02-08 00:53:00,
2013-02-07 18:58:00,53.4,53.4,29.89,NNE,12,2.2,3.1,100,0.00,,,0.08,VWS V13.01,2013-02-08 00:58:00,
2013-02-07 19:03:00,53.4,53.4,29.89,North,11,2.2,2.2,100,0.00,,,0.08,VWS V13.01,2013-02-08 01:03:00,
2013-02-07 19:08:00,53.4,53.4,29.89,NNE,27,0.0,2.2,100,0.00,,,0.08,VWS V13.01,2013-02-08 01:08:00,
2013-02-07 19:13:00,53.4,53.4,29.89,NNE,27,0.0,0.0,100,0.00,,,0.08,VWS V13.01,2013-02-08 01:13:00,
2013-02-07 19:18:00,53.4,53.4,29.89,NNE,27,0.0,0.0,100,0.00,,,0.08,VWS V13.01,2013-02-08 01:18:00,
2013-02-07 19:23:00,53.4,53.4,29.89,NNE,27,0.0,0.0,100,0.00,,,0.08,VWS V13.01,2013-02-08 01:23:00,
2013-02-07 19:28:00,53.4,53.4,29.89,NNE,27,0.0,0.0,100,0.04,,,0.12,VWS V13.01,2013-02-08 01:28:00,
2013-02-07 19:33:00,53.4,53.4,29.89,NNE,27,0.0,0.0,100,0.04,,,0.12,VWS V13.01,2013-02-08 01:33:00,
2013-02-07 19:38:00,53.2,53.2,29.89,NNE,27,0.0,0.0,100,0.04,,,0.12,VWS V13.01,2013-02-08 01:38:00,
2013-02-07 19:43:00,53.2,53.2,29.89,NNE,27,0.0,0.0,100,0.04,,,0.12,VWS V13.01,2013-02-08 01:43:00,
2013-02-07 19:48:00,53.2,53.2,29.89,NNE,27,0.0,0.0,100,0.04,,,0.12,VWS V13.01,2013-02-08 01:48:00,
2013-02-07 19:53:00,53.0,53.0,29.89,NNE,27,0.0,0.0,100,0.04,,,0.12,VWS V13.01,2013-02-08 01:53:00,
2013-02-07 19:58:00,53.0,53.0,29.89,NNE,27,0.0,0.0,100,0.04,,,0.12,VWS V13.01,2013-02-08 01:58:00,
2013-02-07 20:03:00,53.0,53.0,29.89,NNW,334,0.0,0.0,100,0.04,,,0.12,VWS V13.01,2013-02-08 02:03:00,
2013-02-07 20:08:00,53.0,53.0,29.89,NNW,334,0.0,0.0,100,0.04,,,0.12,VWS V13.01,2013-02-08 02:08:00,
2013-02-07 20:13:00,53.0,53.0,29.89,NNW,334,0.0,0.0,100,0.04,,,0.12,VWS V13.01,2013-02-08 02:13:00,
2013-02-07 20:18:00,52.9,52.9,29.89,ENE,61,0.0,0.0,100,0.04,,,0.12,VWS V13.01,2013-02-08 02:18:00,
2013-02-07 20:23:00,52.9,52.9,29.89,ENE,61,0.0,0.0,100,0.04,,,0.12,VWS V13.01,2013-02-08 02:23:00,
2013-02-07 20:28:00,52.9,52.9,29.89,ENE,61,0.0,0.0,100,0.00,,,0.12,VWS V13.01,2013-02-08 02:28:00,
2013-02-07 20:33:00,52.7,52.7,29.89,WSW,251,4.9,5.8,100,0.00,,,0.12,VWS V13.01,2013-02-08 02:33:00,
2013-02-07 20:38:00,52.7,52.7,29.89,WSW,253,5.4,5.4,100,0.00,,,0.12,VWS V13.01,2013-02-08 02:38:00,
2013-02-07 20:43:00,52.5,52.5,29.95,West,264,5.8,7.6,100,0.00,,,0.12,VWS V13.01,2013-02-08 02:43:00,
2013-02-07 20:48:00,52.7,52.1,29.95,North,351,3.1,5.4,98,0.04,,,0.16,VWS V13.01,2013-02-08 02:48:00,
2013-02-07 20:53:00,52.9,52.0,29.95,NW,320,7.2,7.2,97,0.04,,,0.16,VWS V13.01,2013-02-08 02:53:00,
2013-02-07 20:58:00,52.9,51.5,29.92,NNW,329,3.6,4.0,95,0.04,,,0.16,VWS V13.01,2013-02-08 02:58:00,
2013-02-07 21:03:00,52.7,51.0,29.92,NW,317,4.0,4.0,94,0.04,,,0.16,VWS V13.01,2013-02-08 03:03:00,
2013-02-07 21:08:00,52.5,51.4,29.92,NW,323,0.0,2.2,96,0.04,,,0.16,VWS V13.01,2013-02-08 03:08:00,
2013-02-07 21:13:00,52.3,51.5,29.92,NW,321,2.7,2.7,97,0.08,,,0.20,VWS V13.01,2013-02-08 03:13:00,
2013-02-07 21:18:00,52.3,51.8,29.95,NNW,331,0.0,0.0,98,0.08,,,0.20,VWS V13.01,2013-02-08 03:18:00,
2013-02-07 21:23:00,52.1,51.6,29.95,NNW,348,0.0,0.0,98,0.08,,,0.24,VWS V13.01,2013-02-08 03:23:00,
2013-02-07 21:28:00,52.0,51.7,29.95,NNW,348,0.0,0.0,99,0.12,,,0.24,VWS V13.01,2013-02-08 03:28:00,
2013-02-07 21:33:00,51.8,51.8,29.95,NNW,348,0.0,0.0,100,0.12,,,0.24,VWS V13.01,2013-02-08 03:33:00,
2013-02-07 21:38:00,51.8,51.8,29.95,NNW,348,0.0,0.0,100,0.16,,,0.28,VWS V13.01,2013-02-08 03:38:00,
2013-02-07 21:43:00,51.6,51.6,29.95,WSW,249,0.0,0.0,100,0.16,,,0.28,VWS V13.01,2013-02-08 03:43:00,
2013-02-07 21:48:00,51.4,51.4,29.95,WSW,249,0.0,0.0,100,0.16,,,0.28,VWS V13.01,2013-02-08 03:48:00,
2013-02-07 21:53:00,51.2,51.2,29.95,WSW,249,0.0,0.0,100,0.12,,,0.28,VWS V13.01,2013-02-08 03:53:00,
2013-02-07 21:58:00,51.1,51.1,29.95,WSW,249,0.0,0.0,100,0.16,,,0.31,VWS V13.01,2013-02-08 03:58:00,
2013-02-07 22:03:00,51.1,51.1,29.98,SW,218,0.0,0.0,100,0.16,,,0.31,VWS V13.01,2013-02-08 04:03:00,
2013-02-07 22:08:00,50.9,50.9,29.98,SW,232,0.0,0.0,100,0.16,,,0.31,VWS V13.01,2013-02-08 04:08:00,
2013-02-07 22:13:00,50.9,50.9,29.95,SW,236,0.0,0.0,100,0.12,,,0.31,VWS V13.01,2013-02-08 04:13:00,
2013-02-07 22:18:00,50.7,50.7,29.95,West,269,3.1,3.1,100,0.12,,,0.31,VWS V13.01,2013-02-08 04:18:00,
2013-02-07 22:23:00,50.7,50.7,29.95,NW,318,0.0,0.0,100,0.12,,,0.31,VWS V13.01,2013-02-08 04:23:00,
2013-02-07 22:28:00,50.7,50.7,29.95,NW,320,0.0,2.2,100,0.08,,,0.31,VWS V13.01,2013-02-08 04:28:00,
2013-02-07 22:33:00,50.5,50.5,29.95,NW,320,0.0,0.0,100,0.08,,,0.31,VWS V13.01,2013-02-08 04:33:00,
2013-02-07 22:38:00,50.5,50.5,29.95,NW,320,0.0,0.0,100,0.04,,,0.31,VWS V13.01,2013-02-08 04:38:00,
2013-02-07 22:43:00,50.3,50.3,29.95,NW,320,0.0,0.0,100,0.04,,,0.31,VWS V13.01,2013-02-08 04:43:00,
2013-02-07 22:48:00,50.3,50.3,29.95,West,264,2.7,2.7,100,0.04,,,0.31,VWS V13.01,2013-02-08 04:48:00,
2013-02-07 22:53:00,50.2,50.2,29.95,West,271,0.0,0.0,100,0.04,,,0.31,VWS V13.01,2013-02-08 04:53:00,
2013-02-07 22:58:00,50.2,50.2,29.98,WNW,283,3.6,3.6,100,0.00,,,0.31,VWS V13.01,2013-02-08 04:58:00,
2013-02-07 23:00:00,50.2,50.2,29.98,West,270,0.0,2.2,100,0.00,,,0.31,VWS V13.01,2013-02-08 05:00:00,
2013-02-07 23:05:00,50.2,49.9,29.98,West,270,0.0,0.0,99,0.00,,,0.31,VWS V13.01,2013-02-08 05:05:00,
2013-02-07 23:10:00,50.2,48.5,29.98,NW,308,3.1,4.0,94,0.00,,,0.31,VWS V13.01,2013-02-08 05:10:00,
2013-02-07 23:15:00,50.5,47.7,29.98,WNW,303,5.8,6.3,90,0.00,,,0.31,VWS V13.01,2013-02-08 05:15:00,
2013-02-07 23:20:00,50.7,47.9,29.98,WNW,301,3.6,3.6,90,0.00,,,0.31,VWS V13.01,2013-02-08 05:20:00,
2013-02-07 23:25:00,51.1,47.3,29.98,WNW,301,4.0,4.0,87,0.00,,,0.31,VWS V13.01,2013-02-08 05:25:00,
2013-02-07 23:30:00,50.9,47.8,29.98,West,269,3.1,3.6,89,0.00,,,0.31,VWS V13.01,2013-02-08 05:30:00,
2013-02-07 23:35:00,50.7,47.6,29.98,NW,306,3.1,3.6,89,0.00,,,0.31,VWS V13.01,2013-02-08 05:35:00,
2013-02-07 23:40:00,50.5,47.4,29.98,West,265,4.0,4.0,89,0.00,,,0.31,VWS V13.01,2013-02-08 05:40:00,
2013-02-07 23:45:00,50.3,46.9,29.98,West,274,3.6,3.6,88,0.00,,,0.31,VWS V13.01,2013-02-08 05:45:00,
2013-02-07 23:50:00,50.2,46.8,29.98,West,267,3.6,4.5,88,0.00,,,0.31,VWS V13.01,2013-02-08 05:50:00,
2013-02-07 23:55:00,50.0,46.0,29.98,WNW,285,4.9,5.4,86,0.00,,,0.31,VWS V13.01,2013-02-08 05:55:00,